CAPE
0 0 86 277 524 644 911 1230 1234 1188 1123 1090 1027 948 972 1085 1127 1116 1241 1238 1087 945 964 932 982 972 1005 842 764 678 636 649 622 462 308 50 627 1420 1428 1445 1417 1125 1415
0 0 15 46 129 253 490 656 909 958 966 932 784 621 649 661 542 416 343 638 790 818 851 806 866 1021 1007 852 862 1039 820 1261 1153 960 801 448 185 1565 1701 1410 1451 1385 1481
0 0 0 0 0 12 59 195 217 309 375 459 614 453 330 350 420 376 231 203 272 417 535 641 692 625 596 772 750 738 747 1086 1113 1012 748 345 0 912 1854 1536 1546 1564 1339
0 0 0 0 0 0 2 0 0 31 10 107 62 111 6 3 3 3 4 3 4 5 35 79 86 31 56 149 410 573 518 602 876 530 58 129 0 273 1416 1464 1627 1681 1753
0 0 0 0 0 0 0 0 0 2 1 2 6 2 1 6 5 4 2 1 1 0 3 3 7 4 3 3 40 147 296 528 679 84 0 10 146 155 509 802 1429 1561 1154
0 0 0 0 0 0 0 0 0 0 0 1 0 0 0 0 0 0 0 0 0 0 0 1 0 0 0 0 0 1 2 1 8 69 0 0 124 708 516 502 931 1221 1242
0 0 0 0 0 0 0 0 0 0 0 0 0 0 0 0 0 0 0 0 0 0 0 0 0 0 0 0 0 0 0 0 0 0 23 0 2 411 344 561 688 752 1043
0 0 0 0 0 0 0 0 0 0 0 0 0 0 0 0 0 0 0 0 0 0 0 0 0 0 0 0 0 0 0 0 0 0 0 0 12 391 257 582 767 784 819
0 0 0 0 0 0 0 0 0 0 0 0 0 0 0 0 0 0 0 0 0 0 0 0 0 0 0 0 0 0 0 0 0 0 0 0 2 213 140 308 481 482 401
0 0 0 0 0 0 0 0 0 0 0 0 0 0 0 0 0 0 0 0 0 0 0 0 0 0 0 0 0 0 0 0 0 0 0 0 2 57 296 395 435 299 213
0 0 0 0 0 0 0 0 0 0 0 0 0 0 0 0 0 0 0 0 0 0 0 0 0 0 0 0 0 0 0 0 0 0 0 0 0 0 0 268 443 337 334
0 0 0 0 0 0 0 0 0 0 0 0 0 0 0 0 0 0 0 0 0 0 0 0 0 0 0 0 0 0 0 0 0 0 0 0 0 0 0 0 23 115 293
0 0 0 0 0 0 0 0 0 0 0 0 0 0 0 0 0 0 0 0 0 0 0 0 0 0 0 0 0 0 0 0 0 0 0 0 0 0 0 0 0 0 7
0 0 0 0 0 0 0 0 0 0 0 0 0 0 0 0 0 0 0 0 0 0 0 0 0 0 0 0 0 0 0 0 0 0 0 0 0 0 0 0 0 0 0
0 0 0 0 0 0 0 0 0 0 0 0 0 0 0 0 0 0 0 0 0 0 0 0 0 0 0 0 0 0 0 0 0 0 0 0 0 0 0 0 0 0 0
0 0 0 0 0 0 0 0 0 0 0 0 0 0 0 0 0 0 0 0 0 0 0 0 0 0 0 0 0 0 0 0 0 0 0 0 0 0 0 0 0 0 0
0 0 0 0 0 0 0 0 0 0 0 0 0 0 0 0 0 0 0 0 0 0 0 0 0 0 0 0 0 0 0 0 0 0 0 0 0 0 0 0 0 0 0
0 0 0 0 0 0 0 0 0 0 0 0 0 0 0 0 0 0 0 0 0 0 0 0 0 0 0 0 0 0 0 0 0 0 0 0 0 0 0 0 0 0 0
0 0 0 0 0 0 0 0 0 0 0 0 0 0 0 0 0 0 0 0 0 0 0 0 0 0 0 0 0 0 0 0 0 0 0 0 0 0 0 0 0 0 0
0 0 0 0 0 0 0 0 0 0 0 0 0 0 0 0 0 0 0 0 0 0 0 0 0 0 0 0 0 0 0 0 0 0 0 0 0 0 0 0 0 0 0
0 0 0 0 0 0 0 0 0 0 0 0 0 0 0 0 0 0 0 0 0 0 0 0 0 0 0 0 0 0 0 0 0 0 0 0 0 0 0 0 0 0 0
0 0 0 0 0 0 0 0 0 0 0 0 0 0 0 0 0 0 0 0 0 0 0 0 0 0 0 0 0 0 0 0 0 0 0 0 0 0 0 0 0 0 0
0 0 0 0 0 0 0 0 0 0 0 0 0 0 0 0 0 0 0 0 0 0 0 0 0 0 0 0 0 0 0 0 0 0 0 0 0 0 0 0 0 0 0
0 0 0 0 0 0 0 0 0 0 0 0 0 0 0 0 0 0 0 0 0 0 0 0 0 0 0 0 0 0 0 0 0 0 0 0 0 0 0 0 0 0 0
0 0 0 0 0 0 0 0 0 0 0 0 0 0 0 0 0 0 0 0 0 0 0 0 0 0 0 0 0 0 0 0 0 0 0 0 0 0 0 0 0 0 0
0 0 0 0 0 0 0 0 0 0 0 0 0 0 0 0 0 0 0 0 0 0 0 0 0 0 0 0 0 0 0 0 0 0 0 0 0 0 0 0 0 0 0
CIN
0 0 -358 -179 -55 -23 -2 0 -0 -1 -1 -0 0 0 0 0 0 0 0 -0 -0 0 0 0 0 0 0 0 0 -5 -13 -22 -32 -75 -109 -167 -44 -6 -3 -1 -1 -1 -2
0 0 -518 -427 -293 -170 -63 -24 -3 -1 -0 -3 -1 -10 -6 -4 -12 -25 -37 -0 0 0 0 -0 -0 0 -0 0 0 0 0 0 -0 -3 -37 -98 -134 -9 -3 -4 -3 -2 -1
0 0 0 0 0 -377 -354 -207 -174 -99 -65 -40 -8 -25 -40 -36 -41 -52 -80 -94 -57 -21 -8 -4 -1 -1 -2 0 0 0 0 0 0 -0 -12 -94 0 -20 -4 -3 -2 -0 0
0 0 0 0 0 0 0 0 0 -321 -182 -204 -226 -190 -0 -0 -0 -0 0 -0 0 0 -111 -167 -170 -120 -212 -102 -24 -2 -1 -0 -0 -14 -161 -80 0 -56 -1 -0 0 0 -0
0 0 0 0 0 0 0 0 0 0 0 0 0 0 0 0 0 0 0 0 0 -0 0 0 0 0 0 0 -250 -143 -66 -25 -2 -126 0 -174 -72 -36 -12 -12 0 -1 -5
0 0 0 0 0 0 0 0 0 0 0 0 0 0 0 0 0 0 0 0 0 0 0 0 0 0 0 0 0 0 0 0 -338 -199 0 0 -103 -6 -8 -25 -4 -1 -1
0 0 0 0 0 0 0 0 0 0 0 0 0 0 0 0 0 0 0 0 0 0 0 0 0 0 0 0 0 0 0 0 0 0 -288 0 -8 -57 -41 -3 -0 -2 -0
0 0 0 0 0 0 0 0 0 0 0 0 0 0 0 0 0 0 0 0 0 0 0 0 0 0 0 0 0 0 0 0 0 0 0 0 -162 -73 -86 -21 -3 0 0
0 0 0 0 0 0 0 0 0 0 0 0 0 0 0 0 0 0 0 0 0 0 0 0 0 0 0 0 0 0 0 0 0 0 0 0 -19 -152 -177 -48 -26 -11 -12
0 0 0 0 0 0 0 0 0 0 0 0 0 0 0 0 0 0 0 0 0 0 0 0 0 0 0 0 0 0 0 0 0 0 0 0 -20 -293 -157 -71 -28 -51 -62
0 0 0 0 0 0 0 0 0 0 0 0 0 0 0 0 0 0 0 0 0 0 0 0 0 0 0 0 0 0 0 0 0 0 0 0 0 0 0 -184 -77 -55 -45
0 0 0 0 0 0 0 0 0 0 0 0 0 0 0 0 0 0 0 0 0 0 0 0 0 0 0 0 0 0 0 0 0 0 0 0 0 0 0 0 -166 -220 -104
0 0 0 0 0 0 0 0 0 0 0 0 0 0 0 0 0 0 0 0 0 0 0 0 0 0 0 0 0 0 0 0 0 0 0 0 0 0 0 0 0 0 -34
0 0 0 0 0 0 0 0 0 0 0 0 0 0 0 0 0 0 0 0 0 0 0 0 0 0 0 0 0 0 0 0 0 0 0 0 0 0 0 0 0 0 0
0 0 0 0 0 0 0 0 0 0 0 0 0 0 0 0 0 0 0 0 0 0 0 0 0 0 0 0 0 0 0 0 0 0 0 0 0 0 0 0 0 0 0
0 0 0 0 0 0 0 0 0 0 0 0 0 0 0 0 0 0 0 0 0 0 0 0 0 0 0 0 0 0 0 0 0 0 0 0 0 0 0 0 0 0 0
0 0 0 0 0 0 0 0 0 0 0 0 0 0 0 0 0 0 0 0 0 0 0 0 0 0 0 0 0 0 0 0 0 0 0 0 0 0 0 0 0 0 0
0 0 0 0 0 0 0 0 0 0 0 0 0 0 0 0 0 0 0 0 0 0 0 0 0 0 0 0 0 0 0 0 0 0 0 0 0 0 0 0 0 0 0
0 0 0 0 0 0 0 0 0 0 0 0 0 0 0 0 0 0 0 0 0 0 0 0 0 0 0 0 0 0 0 0 0 0 0 0 0 0 0 0 0 0 0
0 0 0 0 0 0 0 0 0 0 0 0 0 0 0 0 0 0 0 0 0 0 0 0 0 0 0 0 0 0 0 0 0 0 0 0 0 0 0 0 0 0 0
0 0 0 0 0 0 0 0 0 0 0 0 0 0 0 0 0 0 0 0 0 0 0 0 0 0 0 0 0 0 0 0 0 0 0 0 0 0 0 0 0 0 0
0 0 0 0 0 0 0 0 0 0 0 0 0 0 0 0 0 0 0 0 0 0 0 0 0 0 0 0 0 0 0 0 0 0 0 0 0 0 0 0 0 0 0
0 0 0 0 0 0 0 0 0 0 0 0 0 0 0 0 0 0 0 0 0 0 0 0 0 0 0 0 0 0 0 0 0 0 0 0 0 0 0 0 0 0 0
0 0 0 0 0 0 0 0 0 0 0 0 0 0 0 0 0 0 0 0 0 0 0 0 0 0 0 0 0 0 0 0 0 0 0 0 0 0 0 0 0 0 0
0 0 0 0 0 0 0 0 0 0 0 0 0 0 0 0 0 0 0 0 0 0 0 0 0 0 0 0 0 0 0 0 0 0 0 0 0 0 0 0 0 0 0
0 0 0 0 0 0 0 0 0 0 0 0 0 0 0 0 0 0 0 0 0 0 0 0 0 0 0 0 0 0 0 0 0 0 0 0 0 0 0 0 0 0 0
Wind_Speed
5 9 8 9 9 10 12 13 10 8 7 9 12 13 13 14 14 15 13 9 7 7 9 10 10 11 11 9 9 8 6 6 8 10 10 10 9 6 5 4 4 4 7
7 10 10 9 9 11 11 13 13 13 14 13 12 12 12 12 13 13 12 13 12 10 10 9 10 11 11 11 10 10 9 7 5 7 9 10 12 9 4 1 2 3 10
6 10 9 10 10 11 10 12 12 11 12 11 14 14 13 13 14 13 13 13 12 13 13 12 13 14 14 12 10 10 10 9 8 7 10 6 6 3 4 1 2 3 6
5 9 7 9 11 11 11 11 10 10 7 9 10 11 12 8 8 10 12 11 12 12 12 13 13 14 15 14 12 10 9 8 8 9 6 7 3 6 6 5 5 6 6
6 8 6 10 11 12 12 11 10 11 11 10 12 11 10 10 12 11 11 11 12 13 13 12 13 13 13 12 13 14 14 13 9 8 7 5 4 5 8 8 8 8 9
7 8 6 9 10 11 11 11 11 11 11 11 12 11 11 11 12 11 11 11 12 13 12 12 13 13 13 13 12 12 12 12 13 7 6 6 4 5 6 7 9 10 9
8 8 6 8 9 10 10 10 10 11 11 10 11 11 11 11 11 12 12 12 13 13 12 12 13 14 14 13 12 11 10 11 6 6 6 6 6 5 6 6 7 9 11
8 8 7 7 9 10 10 10 10 10 10 10 10 10 11 12 12 12 13 13 13 14 13 13 13 13 14 14 14 12 12 11 7 6 7 6 7 8 9 7 7 8 11
8 7 8 8 8 10 9 8 9 9 10 10 10 9 9 10 11 12 12 13 14 15 14 15 15 16 15 14 12 12 12 12 7 6 7 5 9 12 8 8 8 10 12
8 7 7 8 7 7 6 8 9 10 10 9 8 6 2 6 9 11 11 11 12 14 12 14 14 15 15 15 12 10 11 14 7 5 4 4 10 14 13 10 9 11 13
7 8 7 8 7 8 8 7 10 11 10 8 7 2 1 5 5 6 6 9 10 13 12 14 14 14 16 16 16 16 14 4 7 6 5 11 15 16 14 14 13 12 14
9 7 7 8 7 7 7 7 7 6 4 4 5 5 3 4 1 3 5 10 12 14 14 16 16 16 11 5 5 10 5 7 5 5 5 14 18 18 17 17 18 18 17
9 7 8 8 7 7 5 4 3 3 3 3 5 3 2 3 3 3 3 3 4 8 5 7 6 4 7 6 5 5 5 5 4 4 7 17 21 20 20 20 19 20 22
13 11 10 9 8 8 5 4 5 4 3 3 4 2 3 3 3 3 3 4 4 4 6 5 4 6 7 8 7 7 6 5 4 4 5 12 16 20 21 20 21 22 23
14 12 12 9 8 7 7 4 5 5 4 5 5 3 3 4 3 3 3 3 4 5 4 5 5 5 6 6 6 6 7 7 7 4 4 11 15 19 20 21 21 22 23
13 12 12 10 9 8 6 7 6 5 6 5 5 5 4 4 3 3 3 4 4 4 4 4 5 5 5 5 6 7 7 7 8 8 7 6 13 17 20 21 21 22 22
12 12 14 11 10 9 8 7 6 5 6 5 5 6 4 4 4 3 3 3 3 3 3 3 4 4 5 5 6 6 7 8 9 9 8 6 6 11 15 18 20 22 23
10 14 12 12 10 9 7 6 5 5 5 5 5 5 5 5 4 3 2 2 3 3 3 3 4 4 5 5 5 6 6 7 11 11 9 6 5 4 6 14 20 22 22
11 12 13 11 11 10 8 6 6 7 5 5 5 5 6 5 4 3 2 2 3 2 2 3 3 4 4 5 7 7 8 9 10 9 11 7 7 5 4 8 13 15 19
12 12 12 10 9 9 6 5 5 5 5 5 5 5 7 5 5 3 2 3 3 2 3 3 4 3 4 6 8 10 10 11 9 7 7 8 6 6 5 6 5 5 11
13 14 14 13 11 9 7 7 5 6 4 4 4 7 7 5 5 4 3 3 3 2 2 3 3 5 3 4 5 5 10 10 8 5 4 5 6 6 6 5 4 3 5
15 14 15 15 14 11 9 6 4 6 4 4 4 6 6 7 6 5 5 3 1 0 2 3 4 3 3 2 3 6 5 6 3 12 11 6 6 4 5 5 7 9 6
16 17 17 17 16 14 10 7 3 5 5 4 5 5 5 7 6 5 5 4 2 0 2 2 3 4 3 3 4 3 5 4 10 4 7 7 5 5 6 9 7 9 11
13 13 15 15 15 14 13 11 12 8 8 5 6 5 6 8 7 7 6 4 3 1 2 3 3 2 2 4 3 3 2 4 5 11 2 7 10 10 7 8 10 6 9
12 14 14 13 15 15 14 14 11 6 4 5 6 9 6 6 7 6 6 5 3 2 3 2 4 5 3 3 3 3 2 3 5 6 19 7 8 10 9 9 10 10 12
11 12 14 15 15 14 14 13 15 14 9 10 7 7 5 5 5 7 7 6 5 4 3 2 3 5 5 5 3 3 4 4 4 5 9 18 16 12 10 11 11 11 10
Wind_Direction
94 91 66 72 64 73 63 67 75 85 83 75 63 57 47 46 53 47 42 41 43 20 18 13 15 12 21 11 4 1 5 4 352 354 351 334 311 295 285 306 321 298 291
97 89 70 78 75 72 68 58 55 61 62 62 68 62 50 47 44 43 38 33 33 31 25 20 12 11 13 9 5 3 6 8 346 342 329 317 300 260 235 262 331 319 323
111 116 79 80 80 76 75 73 65 63 58 60 69 67 62 50 48 47 48 38 32 29 27 24 27 23 14 9 360 354 354 359 4 341 317 287 280 305 136 138 345 322 304
117 84 83 86 91 93 94 86 78 82 94 76 76 75 64 59 58 48 44 37 31 25 21 14 17 16 12 3 358 354 349 353 352 338 303 302 341 339 44 16 346 329 307
111 101 89 98 97 94 92 89 90 90 86 86 80 74 73 68 63 57 52 43 33 27 23 18 16 14 14 6 4 2 360 351 332 316 288 307 7 313 348 355 349 343 333
114 101 84 98 96 97 96 96 94 94 91 90 84 78 70 67 60 57 49 39 32 28 19 20 14 9 3 5 5 358 357 347 334 311 311 312 307 319 354 346 343 337 321
118 113 86 106 114 110 105 103 99 94 90 88 85 79 71 61 53 48 40 33 30 25 19 17 7 0 355 354 351 350 349 345 341 299 291 283 277 265 293 311 323 324 325
121 114 117 101 106 106 105 107 106 103 97 90 82 77 70 65 56 45 39 34 29 23 19 15 8 1 352 345 341 338 336 334 321 304 301 301 297 295 285 308 318 320 318
131 148 153 141 113 103 101 107 110 105 98 91 85 81 77 66 59 48 36 27 25 17 11 8 3 358 351 344 340 333 328 313 296 270 270 269 268 281 280 281 296 306 311
151 164 157 135 151 133 116 118 123 119 113 105 100 97 119 89 57 59 31 21 24 15 12 8 2 355 349 339 336 321 305 308 294 284 323 316 337 339 319 294 297 297 298
170 178 161 162 166 142 137 142 134 133 135 134 124 88 35 67 35 72 44 29 30 17 17 8 5 355 3 354 344 354 340 343 347 335 323 307 322 322 311 309 298 294 294
184 190 168 168 169 160 157 163 164 163 146 111 88 74 44 85 62 47 42 37 16 26 17 12 6 5 357 338 335 343 338 336 331 325 316 315 326 317 311 308 303 296 293
183 179 179 171 173 165 153 150 154 140 131 111 92 91 84 84 37 35 38 20 13 23 16 9 359 354 348 342 334 329 326 326 318 320 328 327 319 316 308 303 298 295 291
186 180 175 175 167 172 151 156 159 135 137 128 113 90 105 87 58 43 47 29 28 21 17 6 356 349 339 333 333 325 320 319 315 306 291 302 310 308 304 302 300 294 289
189 179 171 169 166 161 152 178 154 137 145 133 125 87 79 98 74 59 54 44 33 32 21 356 345 339 330 316 314 312 315 312 302 298 289 293 298 305 305 304 302 297 293
185 177 164 168 164 156 172 165 156 153 144 144 135 125 90 105 92 67 57 40 39 36 3 339 328 320 313 311 317 316 308 306 300 295 293 294 295 297 301 302 299 296 293
189 164 165 164 164 159 176 162 152 152 150 143 129 128 129 95 90 69 71 59 60 29 356 336 329 334 319 317 311 305 303 294 295 284 285 285 289 294 292 296 301 301 297
174 169 160 170 168 159 165 157 147 144 142 137 136 145 136 122 106 99 102 78 49 23 359 350 329 327 316 312 308 298 281 283 281 286 286 278 276 287 304 300 298 296 298
172 165 164 161 163 158 156 155 143 149 142 144 144 144 147 135 131 134 121 84 58 24 354 336 340 329 314 312 304 302 296 286 280 281 282 284 269 263 257 270 282 284 291
164 159 159 158 156 157 146 141 126 134 153 146 155 152 144 144 147 138 106 79 72 37 355 357 328 299 290 294 307 300 292 283 286 285 271 275 272 278 281 263 262 261 274
155 158 160 160 166 165 159 153 151 171 168 158 162 150 151 153 160 149 119 82 56 47 311 302 280 292 297 303 319 316 288 279 278 292 311 309 291 273 291 298 297 278 285
161 161 164 171 174 175 168 165 154 154 177 156 152 156 166 156 167 147 126 122 127 96 311 298 290 315 288 340 329 296 313 300 20 327 305 297 302 315 309 333 322 307 303
165 171 174 175 178 178 165 157 114 100 98 126 163 164 166 157 153 157 147 148 148 52 274 285 313 307 299 317 303 265 326 304 331 273 299 286 309 322 305 306 301 309 297
175 172 177 178 180 179 170 167 167 167 163 187 171 155 161 161 170 163 150 140 156 188 267 265 262 268 275 267 313 254 291 317 329 316 270 335 294 276 277 301 288 294 310
170 177 181 180 184 182 181 174 168 173 168 153 147 145 153 165 170 160 153 148 163 196 233 282 297 274 257 261 236 279 270 269 264 274 299 289 299 302 297 297 292 291 286
170 175 184 187 191 184 179 178 178 175 166 150 148 156 164 174 171 167 159 153 172 189 231 231 275 284 278 273 268 264 253 259 281 289 292 298 297 298 293 289 285 281 278